Other Public Products
Issued by NWS Grand Forks, ND

Home | Current Version | Previous Version | Text Only | Print | Product List | Glossary Off
Versions: 1 2 3 4 5 6 7 8 9 10 11 12 13 14 15 16 17 18 19 20 21 22 23 24 25 26 27 28 29 30 31 32 33 34 35 36 37 38 39 40 41 42 43 44 45 46 47 48 49 50

000
FPUS83 KFGF 140131
OPUFGF
PRAIRIE TO PINES WEATHER ROUNDUP
NATIONAL WEATHER SERVICE EASTERN NORTH DAKOTA/GRAND FORKS ND
700 PM CST WED DEC 13 2017

 **SATELLITE DATA USED TO AUGMENT SKY COVER AT AUTOMATED STATIONS**
 *****  WEATHER ACROSS EASTERN NORTH DAKOTA  *****

CITY           SKY/WX    TMP DP  RH WIND       PRES   REMARKS
GRAND FORKS    FLURRIES  20  16  84 N15       29.98R WCI   6
GRND FORKS AFB FLURRIES  19  14  79 N14       29.98R WCI   6
GRND FORKS NWS   N/A     19 N/A N/A VRB6        N/A  WCI  11
BUXTON           N/A     19  16  87 N14         N/A  WCI   6
DEVILS LAKE    CLOUDY    23  19  86 N14       29.96R WCI  11
FARGO          CLOUDY    22  17  81 N14       29.95R WCI   9
WAHPETON ARPT    N/A     21  14  73 N21       29.96R WCI   6
$$

 *****  WEATHER ACROSS CENTRAL AND WESTERN NORTH DAKOTA  *****

CITY           SKY/WX    TMP DP  RH WIND       PRES   REMARKS
JAMESTOWN      CLOUDY    27  25  92 NE13      29.94R WCI  16
BISMARCK       MOCLDY    34  25  69 NW14      30.00R WCI  25
MINOT          CLOUDY    33  25  72 NW14      29.97R WCI  23
MINOT AFB      CLOUDY    32  25  74 NW14      29.96S WCI  22
GARRISON         N/A     28  23  81 NW9       29.98R WCI  19
WILLISTON      FAIR      33  25  72 W9        30.02S
DICKINSON      FAIR      31  23  72 NW13      29.99S WCI  21
HETTINGER      FAIR      33  23  66 NW14      30.03R WCI  23
$$

 *****  OTHER OBSERVATIONS NORTHEAST NORTH DAKOTA  *****

CITY           SKY/WX    TMP DP  RH WIND       PRES   REMARKS
WALHALLA       FAIR      18  18 100 N12       29.99R WCI   5
LANGDON        CLOUDY    19  19 100 N8        29.95R WCI   9
CAVALIER       CLOUDY    16  12  86 N13       29.99S WCI   2
GRAFTON        CLOUDY    19  16  86 N10       30.00F WCI   8
CANDO          CLOUDY    23  23 100 N7        29.98R WCI  15
FORT TOTTEN      N/A     24  21  87 N5        29.95S WCI  18
ROLLA          CLOUDY    21  21 100 N5        29.95R WCI  15
RUGBY          CLOUDY    28  28 100 N7        29.95R WCI  21
 ***** THE ABOVE OBSERVATIONS ARE NON NWS ARE NOT QUALITY
        CONTROLLED AND MAY MIS-REPORT RAIN FOR SNOW...
$$

 *****  OTHER OBSERVATIONS SOUTHEAST NORTH DAKOTA *****

CITY           SKY/WX    TMP DP  RH WIND       PRES   REMARKS
COOPERSTOWN    CLOUDY    23  19  86 N16       29.95S WCI  10
VALLEY CITY    CLOUDY    25  25 100 N13       29.96R WCI  13
OAKES            N/A     28  28 100 N12       29.96R WCI  18
GWINNER          N/A     27  23  86 N14       29.96R WCI  15
SHEYENNE NWR     N/A     24  21  88 N9        29.95S WCI  14
BUFFALO          N/A     22  17  81 W14         N/A  WCI  10
WYNDMERE       NOT AVBL
 ***** THE ABOVE OBSERVATIONS ARE NON NWS ARE NOT QUALITY
       CONTROLLED AND MAY MIS-REPORT RAIN FOR SNOW...
$$

  *****  WEATHER ACROSS NORTHERN MINNESOTA  *****

CITY           SKY/WX    TMP DP  RH WIND       PRES   REMARKS
FLAG ISLAND    FAIR       7   5  92 NW3       29.93R
WARROAD        FAIR       9   5  85 W6        29.95R WCI  -1
ROSEAU         CLOUDY    16  10  79 N5        29.95R WCI   9
HALLOCK        FLURRIES  18  14  86 N8        29.98S WCI   7
THF RVR FALLS  FLURRIES  16  12  84 N7        29.95R WCI   6
HALSTAD        NOT AVBL
FOSSTON        CLOUDY    12  10  92 N12       29.93R WCI  -2
BAUDETTE       CLOUDY     9   6  88 NW5       29.92R WCI   1
WASKISH        FLURRIES  14  10  85 NW5       29.93R WCI   6
CROOKSTON      MIX PCPN  18  12  79 N13       29.98R WCI   4
$$
  *****  WEATHER ACROSS CENTRAL AND WEST MINNESOTA  *****

CITY           SKY/WX    TMP DP  RH WIND       PRES   REMARKS
BEMIDJI        CLOUDY    14  10  83 N8        29.90F WCI   3
PARK RAPIDS    CLOUDY    16  11  80 N8        29.88R WCI   5
WADENA         MOCLDY    16  10  79 N7        29.89R WCI   6
DETROIT LAKES  CLOUDY    19  14  79 N6G20     29.91R WCI  11
MOORHEAD       MIX PCPN  19  14  79 N15       29.96S WCI   5
FERGUS FALLS   CLOUDY    19  14  79 N12G17    29.95R WCI   7
ELBOW LAKE     CLOUDY    20  15  79 N13G18    29.92R WCI   7
MORRIS MN      CLOUDY    21  18  86 N13       29.92R WCI   9
STAPLES        FLURRIES  16  10  79 N8        29.89S WCI   5
WHEATON        CLOUDY    21  18  86 N10       29.98R WCI  10
$$
  *****  WEATHER ELSEWHERE ACROSS MINNESOTA  *****

CITY           SKY/WX    TMP DP  RH WIND       PRES   REMARKS
DULUTH         FLURRIES  17  13  84 N10       29.84R WCI   5
INTRNTL FALLS  CLOUDY    17  11  77 N5        29.90R WCI  10
ELY            FLURRIES  12   9  85 N3        29.87R
CLOQUET        CLOUDY    19  12  73 N7        29.84F WCI  10
BRAINERD       MOCLDY    16  11  80 N10       29.89R WCI   4
HIBBING        CLOUDY    17  12  80 N7        29.87R WCI   8
ALEXANDRIA     CLOUDY    20  15  81 N10       29.89R WCI   9
SAINT CLOUD    MOCLDY    19  13  77 N10       29.88R WCI   7
MINNEAPOLIS    FAIR      22  16  78 N12       29.89R WCI  10
$$

  *****  WEATHER ACROSS SOUTH DAKOTA  *****

CITY           SKY/WX    TMP DP  RH WIND       PRES   REMARKS
SIOUX FALLS    CLOUDY    34  30  85 NW14      29.91R WCI  25
BROOKINGS      CLOUDY    31  28  89 N16       29.89R WCI  20
WATERTOWN      CLOUDY    27  26  96 N12       29.90R WCI  17
HURON          CLOUDY    36  24  62 N24G36    29.95R
SISSETON         N/A     26  23  88 N16       29.94R WCI  14
ABERDEEN       CLOUDY    34  24  67 NW13      29.96R WCI  25
MITCHELL       CLOUDY    37  26  64 NW16G25   29.96R
PIERRE         FAIR      33  26  75 N10       29.99R WCI  25
MOBRIDGE       FAIR      36  26  67 N15G25    29.96R
RAPID CITY     FAIR      39  23  52 N20       30.05R
$$

  *****  SOME WEATHER IN NEARBY STATES *****

CITY           SKY/WX    TMP DP  RH WIND       PRES   REMARKS
GLASGOW MT     FAIR      33  25  72 W10       30.11S WCI  25
GREAT FALLS MT FAIR      27  24  89 SW10      30.31R WCI  17
CHEYENNE WY    CLOUDY    38  13  35 N9        30.05S
SCOTTSBLUFF NE MOCLDY    41  18  39 NW10      30.07R
OMAHA NE       CLOUDY    41  27  57 N17G26    29.91R
DES MOINES IA  CLOUDY    36  23  59 N21G40    29.84R
DAVENPORT IA   CLOUDY    31  20  63 NW28G41   29.71R WCI  17
CHICAGO IL     CLOUDY    29  18  63 NW28G38   29.52R WCI  14
EAU CLAIRE WI  FAIR      16  11  80 N7        29.81R WCI   6
LA CROSSE WI   CLOUDY    23  14  68 N13       29.79R WCI  11
$$

  *****  SOME NATIONAL WEATHER *****

CITY           SKY/WX    TMP DP  RH WIND       PRES   REMARKS
LA GUARDIA NY  FAIR      29   7  39 W20G26    29.68R WCI  16
RALEIGH NC     FAIR      39  15  37 SW14      29.78F
ATLANTA GA     FAIR      44  19  36 SW9       29.86F
NEW ORLEANS LA MOCLDY    53  37  54 SW6       30.03S
OKLAHOMA CITY  FAIR      53  19  26 NW3       29.91R
ALBUQUERQUE NM FAIR      46   4  17 SE5       30.03F
SALT LAKE CITY CLOUDY    29  26  89 NW5       30.21R FOG     WCI  24
LOS ANGELES CA FAIR      66  41  40 W7        29.94R
BOISE ID       CLOUDY    25  21  85 NW12      30.39S WCI  14
SEATTLE WA     FAIR      46  35  65 NE17      30.38R
$$

*** WEATHER ACROSS MANITOBA...SASKATCHEWAN AND ONTARIO ***
                ***ONTARIO***

CITY           SKY/WX    TMP DP  RH WIND       PRES   REMARKS
GERALDTON      FLURRIES  -6  -9  84 N5        29.85R WCI -17
THUNDER BAY    PTCLDY     3   0  85 VRB2      29.91R
SIOUX LOOKOUT  CLEAR    -11 -17  77 CALM      29.89R
TORONTO        FLURRIES  16   5  62 NE5       29.60R WCI   9
BIG TROUT LK   CLEAR    -24 -29  76 CALM      29.94S
PICKLE LAKE    PTCLDY    -8 -13  77 W6        29.88R WCI -21
DRYDEN         CLEAR      3   1  92 N3        29.88R
KENORA         CLEAR      3   1  92 N3        29.90R
$$
                *** MANITOBA***

CITY           SKY/WX    TMP DP  RH WIND       PRES   REMARKS
BRANDON        MOCLDY    18  14  86 E3        29.96S
DAUPHIN        CLOUDY    19  18  93 SW2       29.99R
ISLAND LAKE    CLOUDY     1  -6  71 VRB2      29.94
PILOT MOUND      N/A     18  14  86 N6          N/A  WCI   9
THE PAS        FLURRIES  18  12  79 N7        29.98R WCI   8
THOMPSON       FLURRIES   3   0  85 VRB2      29.96R
WINNIPEG       CLOUDY    16  12  86 N5        30.00R WCI   9
LYNN LAKE      CLEAR      3   1  92 N8        29.97R WCI -10
CHURCHILL      FLURRIES   0  -4  85 N13       30.02S WCI -18
GILLAM         FLURRIES  -2  -8  78 W5        29.96F WCI -12
$$
                ***SASKATCHEWAN***

CITY           SKY/WX    TMP DP  RH WIND       PRES   REMARKS
ESTEVAN        MOCLDY    27  25  93 W8        29.98S WCI  18
KINDERSLEY     PTCLDY    30  27  86 NW10G17   30.12R WCI  21
LLOYDMINSTER   MOCLDY    34  27  75 NW18G25   30.11R WCI  23
PRINCE ALBERT  CLOUDY    32  27  80 NW7       29.99R
REGINA         MOCLDY    32  28  86 W9        29.97F WCI  24
YORKTON        CLOUDY    30  27  86 NW9       29.92S WC



USA.gov is the U.S. government's official web portal to all federal, state and local government web resources and services.